Year,Month,Day,Hour,Minute,Value (Times are PST for temperature in C)
2010,11,18,00,00,2.80
2010,11,18,00,01,2.80
2010,11,18,00,02,2.80
2010,11,18,00,03,2.80
2010,11,18,00,04,2.80
2010,11,18,00,05,2.80
2010,11,18,00,06,2.70
2010,11,18,00,07,2.70
2010,11,18,00,08,2.70
2010,11,18,00,09,2.70
2010,11,18,00,10,2.70
2010,11,18,00,11,2.70
2010,11,18,00,12,2.70
2010,11,18,00,13,2.70
2010,11,18,00,14,2.70
2010,11,18,00,15,2.70
2010,11,18,00,16,2.70
2010,11,18,00,17,2.70
2010,11,18,00,18,2.70
2010,11,18,00,19,2.70
2010,11,18,00,20,2.70
2010,11,18,00,21,2.70
2010,11,18,00,22,2.70
2010,11,18,00,23,2.70
2010,11,18,00,24,2.70
2010,11,18,00,25,2.70
2010,11,18,00,26,2.70
2010,11,18,00,27,2.70
2010,11,18,00,28,2.70
2010,11,18,00,29,2.70
2010,11,18,00,30,2.70
2010,11,18,00,31,2.70
2010,11,18,00,32,2.70
2010,11,18,00,33,2.70
2010,11,18,00,34,2.70
2010,11,18,00,35,2.70
2010,11,18,00,36,2.70
2010,11,18,00,37,2.70
2010,11,18,00,38,2.70
2010,11,18,00,39,2.70
2010,11,18,00,40,2.70
2010,11,18,00,41,2.70
2010,11,18,00,42,2.70
2010,11,18,00,43,2.70
2010,11,18,00,44,2.70
2010,11,18,00,45,2.70
2010,11,18,00,46,2.70
2010,11,18,00,47,2.60
2010,11,18,00,48,2.60
2010,11,18,00,49,2.60
2010,11,18,00,50,2.60
2010,11,18,00,51,2.60
2010,11,18,00,52,2.60
2010,11,18,00,53,2.50
2010,11,18,00,54,2.50
2010,11,18,00,55,2.50
2010,11,18,00,56,2.50
2010,11,18,00,57,2.50
2010,11,18,00,58,2.50
2010,11,18,00,59,2.50
2010,11,18,01,00,2.50
2010,11,18,01,01,2.50
2010,11,18,01,02,2.50
2010,11,18,01,03,2.50
2010,11,18,01,04,2.50
2010,11,18,01,05,2.50
2010,11,18,01,06,2.60
2010,11,18,01,07,2.60
2010,11,18,01,08,2.60
2010,11,18,01,09,2.60
2010,11,18,01,10,2.60
2010,11,18,01,11,2.60
2010,11,18,01,12,2.60
2010,11,18,01,13,2.50
2010,11,18,01,14,2.50
2010,11,18,01,15,2.50
2010,11,18,01,16,2.50
2010,11,18,01,17,2.50
2010,11,18,01,18,2.50
2010,11,18,01,19,2.50
2010,11,18,01,20,2.50
2010,11,18,01,21,2.50
2010,11,18,01,22,2.50
2010,11,18,01,23,2.50
2010,11,18,01,24,2.50
2010,11,18,01,25,2.50
2010,11,18,01,26,2.50
2010,11,18,01,27,2.50
2010,11,18,01,28,2.50
2010,11,18,01,29,2.50
2010,11,18,01,30,2.50
2010,11,18,01,31,2.50
2010,11,18,01,32,2.50
2010,11,18,01,33,2.50
2010,11,18,01,34,2.40
2010,11,18,01,35,2.40
2010,11,18,01,36,2.40
2010,11,18,01,37,2.40
2010,11,18,01,38,2.40
2010,11,18,01,39,2.40
2010,11,18,01,40,2.40
2010,11,18,01,41,2.40
2010,11,18,01,42,2.50
2010,11,18,01,43,2.50
2010,11,18,01,44,2.50
2010,11,18,01,45,2.50
2010,11,18,01,46,2.50
2010,11,18,01,47,2.40
2010,11,18,01,48,2.40
2010,11,18,01,49,2.40
2010,11,18,01,50,2.40
2010,11,18,01,51,2.40
2010,11,18,01,52,2.40
2010,11,18,01,53,2.40
2010,11,18,01,54,2.40
2010,11,18,01,55,2.40
2010,11,18,01,56,2.40
2010,11,18,01,57,2.40
2010,11,18,01,58,2.40
2010,11,18,01,59,2.40
2010,11,18,02,00,2.40
2010,11,18,02,01,2.40
2010,11,18,02,02,2.50
2010,11,18,02,03,2.50
2010,11,18,02,04,2.50
2010,11,18,02,05,2.50
2010,11,18,02,06,2.50
2010,11,18,02,07,2.50
2010,11,18,02,08,2.60
2010,11,18,02,09,2.60
2010,11,18,02,10,2.70
2010,11,18,02,11,2.70
2010,11,18,02,12,2.70
2010,11,18,02,13,2.70
2010,11,18,02,14,2.60
2010,11,18,02,15,2.60
2010,11,18,02,16,2.60
2010,11,18,02,17,2.60
2010,11,18,02,18,2.50
2010,11,18,02,19,2.50
2010,11,18,02,20,2.50
2010,11,18,02,21,2.50
2010,11,18,02,22,2.50
2010,11,18,02,23,2.50
2010,11,18,02,24,2.50
2010,11,18,02,25,2.50
2010,11,18,02,26,2.50
2010,11,18,02,27,2.50
2010,11,18,02,28,2.50
2010,11,18,02,29,2.50
2010,11,18,02,30,2.50
2010,11,18,02,31,2.50
2010,11,18,02,32,2.50
2010,11,18,02,33,2.50
2010,11,18,02,34,2.50
2010,11,18,02,35,2.50
2010,11,18,02,36,2.50
2010,11,18,02,37,2.50
2010,11,18,02,38,2.50
2010,11,18,02,39,2.50
2010,11,18,02,40,2.50
2010,11,18,02,41,2.50
2010,11,18,02,42,2.40
2010,11,18,02,43,2.40
2010,11,18,02,44,2.40
2010,11,18,02,45,2.40
2010,11,18,02,46,2.50
2010,11,18,02,47,2.50
2010,11,18,02,48,2.50
2010,11,18,02,49,2.50
2010,11,18,02,50,2.50
2010,11,18,02,51,2.50
2010,11,18,02,52,2.50
2010,11,18,02,53,2.50
2010,11,18,02,54,2.40
2010,11,18,02,55,2.40
2010,11,18,02,56,2.40
2010,11,18,02,57,2.40
2010,11,18,02,58,2.40
2010,11,18,02,59,2.30
2010,11,18,03,00,2.30
2010,11,18,03,01,2.30
2010,11,18,03,02,2.30
2010,11,18,03,03,2.20
2010,11,18,03,04,2.20
2010,11,18,03,05,2.20
2010,11,18,03,06,2.30
2010,11,18,03,07,2.30
2010,11,18,03,08,2.30
2010,11,18,03,09,2.30
2010,11,18,03,10,2.30
2010,11,18,03,11,2.30
2010,11,18,03,12,2.30
2010,11,18,03,13,2.30
2010,11,18,03,14,2.30
2010,11,18,03,15,2.30
2010,11,18,03,16,2.30
2010,11,18,03,17,2.30
2010,11,18,03,18,2.30
2010,11,18,03,19,2.20
2010,11,18,03,20,2.20
2010,11,18,03,21,2.20
2010,11,18,03,22,2.20
2010,11,18,03,23,2.20
2010,11,18,03,24,2.20
2010,11,18,03,25,2.20
2010,11,18,03,26,2.10
2010,11,18,03,27,2.10
2010,11,18,03,28,2.10
2010,11,18,03,29,2.10
2010,11,18,03,30,2.10
2010,11,18,03,31,2.10
2010,11,18,03,32,2.10
2010,11,18,03,33,2.10
2010,11,18,03,34,2.10
2010,11,18,03,35,2.10
2010,11,18,03,36,2.00
2010,11,18,03,37,2.00
2010,11,18,03,38,2.00
2010,11,18,03,39,2.00
2010,11,18,03,40,1.90
2010,11,18,03,41,1.90
2010,11,18,03,42,1.90
2010,11,18,03,43,1.90
2010,11,18,03,44,1.90
2010,11,18,03,45,1.90
2010,11,18,03,46,1.90
2010,11,18,03,47,1.90
2010,11,18,03,48,1.90
2010,11,18,03,49,1.90
2010,11,18,03,50,1.90
2010,11,18,03,51,1.90
2010,11,18,03,52,1.90
2010,11,18,03,53,1.90
2010,11,18,03,54,1.90
2010,11,18,03,55,1.90
2010,11,18,03,56,1.80
2010,11,18,03,57,1.80
2010,11,18,03,58,1.80
2010,11,18,03,59,1.70
2010,11,18,04,00,1.60
2010,11,18,04,01,1.60
2010,11,18,04,02,1.50
2010,11,18,04,03,1.50
2010,11,18,04,04,1.40
2010,11,18,04,05,1.40
2010,11,18,04,06,1.40
2010,11,18,04,07,1.30
2010,11,18,04,08,1.30
2010,11,18,04,09,1.30
2010,11,18,04,10,1.30
2010,11,18,04,11,1.30
2010,11,18,04,12,1.30
2010,11,18,04,13,1.30
2010,11,18,04,14,1.30
2010,11,18,04,15,1.30
2010,11,18,04,16,1.30
2010,11,18,04,17,1.30
2010,11,18,04,18,1.30
2010,11,18,04,19,1.30
2010,11,18,04,20,1.30
2010,11,18,04,21,1.30
2010,11,18,04,22,1.30
2010,11,18,04,23,1.30
2010,11,18,04,24,1.20
2010,11,18,04,25,1.20
2010,11,18,04,26,1.20
2010,11,18,04,27,1.20
2010,11,18,04,28,1.20
2010,11,18,04,29,1.20
2010,11,18,04,30,1.20
2010,11,18,04,31,1.20
2010,11,18,04,32,1.20
2010,11,18,04,33,1.10
2010,11,18,04,34,1.10
2010,11,18,04,35,1.10
2010,11,18,04,36,1.10
2010,11,18,04,37,1.10
2010,11,18,04,38,1.10
2010,11,18,04,39,1.10
2010,11,18,04,40,1.00
2010,11,18,04,41,1.00
2010,11,18,04,42,1.00
2010,11,18,04,43,1.10
2010,11,18,04,44,1.10
2010,11,18,04,45,1.10
2010,11,18,04,46,1.10
2010,11,18,04,47,1.20
2010,11,18,04,48,1.20
2010,11,18,04,49,1.30
2010,11,18,04,50,1.30
2010,11,18,04,51,1.30
2010,11,18,04,52,1.30
2010,11,18,04,53,1.30
2010,11,18,04,54,1.30
2010,11,18,04,55,1.40
2010,11,18,04,56,1.40
2010,11,18,04,57,1.40
2010,11,18,04,58,1.40
2010,11,18,04,59,1.40
2010,11,18,05,00,1.40
2010,11,18,05,01,1.40
2010,11,18,05,02,1.40
2010,11,18,05,03,1.40
2010,11,18,05,04,1.40
2010,11,18,05,05,1.40
2010,11,18,05,06,1.30
2010,11,18,05,07,1.30
2010,11,18,05,08,1.30
2010,11,18,05,09,1.20
2010,11,18,05,10,1.20
2010,11,18,05,11,1.20
2010,11,18,05,12,1.10
2010,11,18,05,13,1.00
2010,11,18,05,14,1.00
2010,11,18,05,15,0.90
2010,11,18,05,16,0.90
2010,11,18,05,17,0.90
2010,11,18,05,18,0.80
2010,11,18,05,19,0.80
2010,11,18,05,20,0.90
2010,11,18,05,21,0.90
2010,11,18,05,22,0.90
2010,11,18,05,23,0.90
2010,11,18,05,24,1.00
2010,11,18,05,25,1.00
2010,11,18,05,26,1.00
2010,11,18,05,27,1.00
2010,11,18,05,28,1.10
2010,11,18,05,29,1.10
2010,11,18,05,30,1.10
2010,11,18,05,31,1.10
2010,11,18,05,32,1.20
2010,11,18,05,33,1.20
2010,11,18,05,34,1.20
2010,11,18,05,35,1.20
2010,11,18,05,36,1.20
2010,11,18,05,37,1.20
2010,11,18,05,38,1.20
2010,11,18,05,39,1.20
2010,11,18,05,40,1.20
2010,11,18,05,41,1.10
2010,11,18,05,42,1.10
2010,11,18,05,43,1.10
2010,11,18,05,44,1.10
2010,11,18,05,45,1.10
2010,11,18,05,46,1.10
2010,11,18,05,47,1.10
2010,11,18,05,48,1.10
2010,11,18,05,49,1.10
2010,11,18,05,50,1.10
2010,11,18,05,51,1.20
2010,11,18,05,52,1.20
2010,11,18,05,53,1.20
2010,11,18,05,54,1.20
2010,11,18,05,55,1.20
2010,11,18,05,56,1.20
2010,11,18,05,57,1.20
2010,11,18,05,58,1.20
2010,11,18,05,59,1.20
2010,11,18,06,00,1.20
2010,11,18,06,01,1.20
2010,11,18,06,02,1.20
2010,11,18,06,03,1.20
2010,11,18,06,04,1.20
2010,11,18,06,05,1.30
2010,11,18,06,06,1.30
2010,11,18,06,07,1.30
2010,11,18,06,08,1.30
2010,11,18,06,09,1.30
2010,11,18,06,10,1.30
2010,11,18,06,11,1.30
2010,11,18,06,12,1.30
2010,11,18,06,13,1.30
2010,11,18,06,14,1.30
2010,11,18,06,15,1.30
2010,11,18,06,16,1.30
2010,11,18,06,17,1.30
2010,11,18,06,18,1.30
2010,11,18,06,19,1.30
2010,11,18,06,20,1.30
2010,11,18,06,21,1.40
2010,11,18,06,22,1.40
2010,11,18,06,23,1.40
2010,11,18,06,24,1.40
2010,11,18,06,25,1.40
2010,11,18,06,26,1.30
2010,11,18,06,27,1.30
2010,11,18,06,28,1.30
2010,11,18,06,29,1.30
2010,11,18,06,30,1.30
2010,11,18,06,31,1.30
2010,11,18,06,32,1.30
2010,11,18,06,33,1.30
2010,11,18,06,34,1.30
2010,11,18,06,35,1.30
2010,11,18,06,36,1.40
2010,11,18,06,37,1.40
2010,11,18,06,38,1.40
2010,11,18,06,39,1.50
2010,11,18,06,40,1.50
2010,11,18,06,41,1.50
2010,11,18,06,42,1.50
2010,11,18,06,43,1.60
2010,11,18,06,44,1.50
2010,11,18,06,45,1.50
2010,11,18,06,46,1.60
2010,11,18,06,47,1.60
2010,11,18,06,48,1.60
2010,11,18,06,49,1.60
2010,11,18,06,50,1.60
2010,11,18,06,51,1.60
2010,11,18,06,52,1.60
2010,11,18,06,53,1.60
2010,11,18,06,54,1.60
2010,11,18,06,55,1.70
2010,11,18,06,56,1.70
2010,11,18,06,57,1.70
2010,11,18,06,58,1.70
2010,11,18,06,59,1.80
2010,11,18,07,00,1.80
2010,11,18,07,01,1.80
2010,11,18,07,02,1.80
2010,11,18,07,03,1.70
2010,11,18,07,04,1.70
2010,11,18,07,05,1.70
2010,11,18,07,06,1.80
2010,11,18,07,07,1.80
2010,11,18,07,08,1.80
2010,11,18,07,09,1.80
2010,11,18,07,10,1.90
2010,11,18,07,11,1.90
2010,11,18,07,12,1.90
2010,11,18,07,13,1.90
2010,11,18,07,14,1.90
2010,11,18,07,15,1.90
2010,11,18,07,16,1.90
2010,11,18,07,17,2.00
2010,11,18,07,18,2.00
2010,11,18,07,19,2.00
2010,11,18,07,20,2.00
2010,11,18,07,21,2.00
2010,11,18,07,22,2.00
2010,11,18,07,23,2.00
2010,11,18,07,24,2.00
2010,11,18,07,25,1.90
2010,11,18,07,26,1.90
2010,11,18,07,27,1.90
2010,11,18,07,28,1.90
2010,11,18,07,29,1.90
2010,11,18,07,30,1.90
2010,11,18,07,31,1.90
2010,11,18,07,32,1.90
2010,11,18,07,33,1.90
2010,11,18,07,34,2.00
2010,11,18,07,35,2.00
2010,11,18,07,36,2.00
2010,11,18,07,37,2.00
2010,11,18,07,38,2.00
2010,11,18,07,39,2.00
2010,11,18,07,40,2.00
2010,11,18,07,41,2.00
2010,11,18,07,42,2.00
2010,11,18,07,43,2.00
2010,11,18,07,44,2.00
2010,11,18,07,45,2.00
2010,11,18,07,46,2.00
2010,11,18,07,47,2.00
2010,11,18,07,48,2.00
2010,11,18,07,49,2.00
2010,11,18,07,50,2.00
2010,11,18,07,51,1.90
2010,11,18,07,52,1.90
2010,11,18,07,53,2.00
2010,11,18,07,54,2.00
2010,11,18,07,55,2.00
2010,11,18,07,56,2.10
2010,11,18,07,57,2.10
2010,11,18,07,58,2.10
2010,11,18,07,59,2.20
2010,11,18,08,00,2.20
2010,11,18,08,01,2.20
2010,11,18,08,02,2.20
2010,11,18,08,03,2.20
2010,11,18,08,04,2.20
2010,11,18,08,05,2.20
2010,11,18,08,06,2.20
2010,11,18,08,07,2.20
2010,11,18,08,08,2.20
2010,11,18,08,09,2.20
2010,11,18,08,10,2.30
2010,11,18,08,11,2.30
2010,11,18,08,12,2.30
2010,11,18,08,13,2.40
2010,11,18,08,14,2.40
2010,11,18,08,15,2.50
2010,11,18,08,16,2.50
2010,11,18,08,17,2.60
2010,11,18,08,18,2.60
2010,11,18,08,19,2.70
2010,11,18,08,20,2.70
2010,11,18,08,21,2.70
2010,11,18,08,22,2.70
2010,11,18,08,23,2.70
2010,11,18,08,24,2.80
2010,11,18,08,25,2.80
2010,11,18,08,26,2.80
2010,11,18,08,27,2.80
2010,11,18,08,28,2.80
2010,11,18,08,29,2.80
2010,11,18,08,30,2.80
2010,11,18,08,31,2.80
2010,11,18,08,32,2.70
2010,11,18,08,33,2.70
2010,11,18,08,34,2.70
2010,11,18,08,35,2.70
2010,11,18,08,36,2.70
2010,11,18,08,37,2.70
2010,11,18,08,38,2.70
2010,11,18,08,39,2.70
2010,11,18,08,40,2.70
2010,11,18,08,41,2.70
2010,11,18,08,42,2.80
2010,11,18,08,43,2.80
2010,11,18,08,44,2.80
2010,11,18,08,45,2.80
2010,11,18,08,46,2.80
2010,11,18,08,47,2.70
2010,11,18,08,48,2.70
2010,11,18,08,49,2.70
2010,11,18,08,50,2.70
2010,11,18,08,51,2.70
2010,11,18,08,52,2.70
2010,11,18,08,53,2.70
2010,11,18,08,54,2.70
2010,11,18,08,55,2.80
2010,11,18,08,56,2.80
2010,11,18,08,57,2.80
2010,11,18,08,58,2.80
2010,11,18,08,59,2.80
2010,11,18,09,00,2.70
2010,11,18,09,01,2.70
2010,11,18,09,02,2.80
2010,11,18,09,03,2.80
2010,11,18,09,04,2.80
2010,11,18,09,05,2.80
2010,11,18,09,06,2.80
2010,11,18,09,07,2.80
2010,11,18,09,08,2.90
2010,11,18,09,09,2.90
2010,11,18,09,10,2.90
2010,11,18,09,11,2.90
2010,11,18,09,12,2.90
2010,11,18,09,13,2.90
2010,11,18,09,14,2.90
2010,11,18,09,15,2.90
2010,11,18,09,16,3.00
2010,11,18,09,17,3.10
2010,11,18,09,18,3.10
2010,11,18,09,19,3.10
2010,11,18,09,20,3.10
2010,11,18,09,21,3.10
2010,11,18,09,22,3.10
2010,11,18,09,23,3.10
2010,11,18,09,24,3.10
2010,11,18,09,25,3.10
2010,11,18,09,26,3.10
2010,11,18,09,27,3.20
2010,11,18,09,28,3.20
2010,11,18,09,29,3.20
2010,11,18,09,30,3.20
2010,11,18,09,31,3.30
2010,11,18,09,32,3.30
2010,11,18,09,33,3.30
2010,11,18,09,34,3.30
2010,11,18,09,35,3.30
2010,11,18,09,36,3.30
2010,11,18,09,37,3.30
2010,11,18,09,38,3.30
2010,11,18,09,39,3.40
2010,11,18,09,40,3.40
2010,11,18,09,41,3.40
2010,11,18,09,42,3.40
2010,11,18,09,43,3.50
2010,11,18,09,44,3.50
2010,11,18,09,45,3.60
2010,11,18,09,46,3.60
2010,11,18,09,47,3.60
2010,11,18,09,48,3.70
2010,11,18,09,49,3.70
2010,11,18,09,50,3.80
2010,11,18,09,51,3.80
2010,11,18,09,52,3.80
2010,11,18,09,53,3.80
2010,11,18,09,54,3.80
2010,11,18,09,55,3.80
2010,11,18,09,56,3.80
2010,11,18,09,57,3.80
2010,11,18,09,58,3.80
2010,11,18,09,59,3.80
2010,11,18,10,00,3.80
2010,11,18,10,01,3.80
2010,11,18,10,02,3.80
2010,11,18,10,03,3.80
2010,11,18,10,04,3.80
2010,11,18,10,05,3.80
2010,11,18,10,06,3.90
2010,11,18,10,07,3.90
2010,11,18,10,08,3.90
2010,11,18,10,09,3.90
2010,11,18,10,10,4.00
2010,11,18,10,11,4.00
2010,11,18,10,12,4.10
2010,11,18,10,13,4.10
2010,11,18,10,14,4.10
2010,11,18,10,15,4.20
2010,11,18,10,16,4.20
2010,11,18,10,17,4.20
2010,11,18,10,18,4.20
2010,11,18,10,19,4.20
2010,11,18,10,20,4.20
2010,11,18,10,21,4.20
2010,11,18,10,22,4.20
2010,11,18,10,23,4.20
2010,11,18,10,24,4.20
2010,11,18,10,25,4.20
2010,11,18,10,26,4.30
2010,11,18,10,27,4.30
2010,11,18,10,28,4.30
2010,11,18,10,29,4.30
2010,11,18,10,30,4.30
2010,11,18,10,31,4.30
2010,11,18,10,32,4.30
2010,11,18,10,33,4.40
2010,11,18,10,34,4.40
2010,11,18,10,35,4.50
2010,11,18,10,36,4.60
2010,11,18,10,37,4.60
2010,11,18,10,38,4.70
2010,11,18,10,39,4.70
2010,11,18,10,40,4.80
2010,11,18,10,41,4.80
2010,11,18,10,42,4.90
2010,11,18,10,43,4.90
2010,11,18,10,44,4.90
2010,11,18,10,45,5.00
2010,11,18,10,46,5.10
2010,11,18,10,47,5.10
2010,11,18,10,48,5.10
2010,11,18,10,49,5.10
2010,11,18,10,50,5.10
2010,11,18,10,51,5.10
2010,11,18,10,52,5.10
2010,11,18,10,53,5.20
2010,11,18,10,54,5.20
2010,11,18,10,55,5.20
2010,11,18,10,56,5.30
2010,11,18,10,57,5.30
2010,11,18,10,58,5.30
2010,11,18,10,59,5.30
2010,11,18,11,00,5.30
2010,11,18,11,01,5.30
2010,11,18,11,02,5.30
2010,11,18,11,03,5.30
2010,11,18,11,04,5.40
2010,11,18,11,05,5.40
2010,11,18,11,06,5.50
2010,11,18,11,07,5.60
2010,11,18,11,08,5.70
2010,11,18,11,09,5.70
2010,11,18,11,10,5.80
2010,11,18,11,11,5.80
2010,11,18,11,12,5.90
2010,11,18,11,13,6.00
2010,11,18,11,14,6.10
2010,11,18,11,15,6.20
2010,11,18,11,16,6.20
2010,11,18,11,17,6.20
2010,11,18,11,18,6.20
2010,11,18,11,19,6.20
2010,11,18,11,20,6.20
2010,11,18,11,21,6.20
2010,11,18,11,22,6.20
2010,11,18,11,23,6.10
2010,11,18,11,24,6.10
2010,11,18,11,25,6.10
2010,11,18,11,26,6.00
2010,11,18,11,27,6.00
2010,11,18,11,28,6.00
2010,11,18,11,29,6.00
2010,11,18,11,30,6.10
2010,11,18,11,31,6.20
2010,11,18,11,32,6.30
2010,11,18,11,33,6.30
2010,11,18,11,34,6.40
2010,11,18,11,35,6.40
2010,11,18,11,36,6.40
2010,11,18,11,37,6.50
2010,11,18,11,38,6.60
2010,11,18,11,39,6.60
2010,11,18,11,40,6.60
2010,11,18,11,41,6.50
2010,11,18,11,42,6.60
2010,11,18,11,43,6.60
2010,11,18,11,44,6.60
2010,11,18,11,45,6.60
2010,11,18,11,46,6.60
2010,11,18,11,47,6.60
2010,11,18,11,48,6.70
2010,11,18,11,49,6.70
2010,11,18,11,50,6.70
2010,11,18,11,51,6.70
2010,11,18,11,52,6.80
2010,11,18,11,53,6.80
2010,11,18,11,54,6.80
2010,11,18,11,55,6.80
2010,11,18,11,56,6.90
2010,11,18,11,57,6.90
2010,11,18,11,58,7.00
2010,11,18,11,59,7.00
2010,11,18,12,00,7.10
2010,11,18,12,01,7.20
2010,11,18,12,02,7.20
2010,11,18,12,03,7.20
2010,11,18,12,04,7.30
2010,11,18,12,05,7.30
2010,11,18,12,06,7.30
2010,11,18,12,07,7.20
2010,11,18,12,08,7.00
2010,11,18,12,09,7.10
2010,11,18,12,10,7.10
2010,11,18,12,11,7.20
2010,11,18,12,12,7.30
2010,11,18,12,13,7.20
2010,11,18,12,14,7.10
2010,11,18,12,15,7.10
2010,11,18,12,16,7.00
2010,11,18,12,17,7.00
2010,11,18,12,18,6.90
2010,11,18,12,19,6.90
2010,11,18,12,20,6.90
2010,11,18,12,21,6.90
2010,11,18,12,22,6.90
2010,11,18,12,23,6.80
2010,11,18,12,24,6.80
2010,11,18,12,25,6.80
2010,11,18,12,26,6.80
2010,11,18,12,27,6.70
2010,11,18,12,28,6.70
2010,11,18,12,29,6.70
2010,11,18,12,30,6.70
2010,11,18,12,31,6.70
2010,11,18,12,32,6.60
2010,11,18,12,33,6.60
2010,11,18,12,34,6.60
2010,11,18,12,35,6.60
2010,11,18,12,36,6.60
2010,11,18,12,37,6.60
2010,11,18,12,38,6.60
2010,11,18,12,39,6.60
2010,11,18,12,40,6.60
2010,11,18,12,41,6.60
2010,11,18,12,42,6.60
2010,11,18,12,43,6.60
2010,11,18,12,44,6.60
2010,11,18,12,45,6.60
2010,11,18,12,46,6.60
2010,11,18,12,47,6.60
2010,11,18,12,48,6.60
2010,11,18,12,49,6.60
2010,11,18,12,50,6.60
2010,11,18,12,51,6.60
2010,11,18,12,52,6.60
2010,11,18,12,53,6.50
2010,11,18,12,54,6.40
2010,11,18,12,55,6.40
2010,11,18,12,56,6.40
2010,11,18,12,57,6.40
2010,11,18,12,58,6.50
2010,11,18,12,59,6.60
2010,11,18,13,00,6.60
2010,11,18,13,01,6.60
2010,11,18,13,02,6.60
2010,11,18,13,03,6.60
2010,11,18,13,04,6.60
2010,11,18,13,05,6.60
2010,11,18,13,06,6.60
2010,11,18,13,07,6.70
2010,11,18,13,08,6.70
2010,11,18,13,09,6.70
2010,11,18,13,10,6.80
2010,11,18,13,11,6.80
2010,11,18,13,12,6.80
2010,11,18,13,13,6.90
2010,11,18,13,14,6.90
2010,11,18,13,15,7.00
2010,11,18,13,16,7.00
2010,11,18,13,17,7.10
2010,11,18,13,18,7.10
2010,11,18,13,19,7.20
2010,11,18,13,20,7.30
2010,11,18,13,21,7.30
2010,11,18,13,22,7.30
2010,11,18,13,23,7.40
2010,11,18,13,24,7.40
2010,11,18,13,25,7.50
2010,11,18,13,26,7.60
2010,11,18,13,27,7.60
2010,11,18,13,28,7.60
2010,11,18,13,29,7.70
2010,11,18,13,30,7.80
2010,11,18,13,31,7.80
2010,11,18,13,32,7.80
2010,11,18,13,33,7.70
2010,11,18,13,34,7.70
2010,11,18,13,35,7.70
2010,11,18,13,36,7.70
2010,11,18,13,37,7.70
2010,11,18,13,38,7.70
2010,11,18,13,39,7.70
2010,11,18,13,40,7.80
2010,11,18,13,41,7.80
2010,11,18,13,42,7.80
2010,11,18,13,43,7.80
2010,11,18,13,44,7.90
2010,11,18,13,45,8.00
2010,11,18,13,46,8.10
2010,11,18,13,47,8.20
2010,11,18,13,48,8.20
2010,11,18,13,49,8.20
2010,11,18,13,50,8.20
2010,11,18,13,51,8.10
2010,11,18,13,52,8.10
2010,11,18,13,53,8.00
2010,11,18,13,54,8.00
2010,11,18,13,55,8.00
2010,11,18,13,56,8.10
2010,11,18,13,57,8.00
2010,11,18,13,58,8.00
2010,11,18,13,59,8.00
2010,11,18,14,00,7.90
2010,11,18,14,01,7.80
2010,11,18,14,02,7.80
2010,11,18,14,03,7.90
2010,11,18,14,04,7.90
2010,11,18,14,05,8.00
2010,11,18,14,06,8.00
2010,11,18,14,07,8.10
2010,11,18,14,08,8.20
2010,11,18,14,09,8.20
2010,11,18,14,10,8.20
2010,11,18,14,11,8.20
2010,11,18,14,12,8.20
2010,11,18,14,13,8.30
2010,11,18,14,14,8.30
2010,11,18,14,15,8.20
2010,11,18,14,16,8.20
2010,11,18,14,17,8.30
2010,11,18,14,18,8.30
2010,11,18,14,19,8.40
2010,11,18,14,20,8.40
2010,11,18,14,21,8.40
2010,11,18,14,22,8.20
2010,11,18,14,23,8.10
2010,11,18,14,24,7.90
2010,11,18,14,25,7.80
2010,11,18,14,26,7.80
2010,11,18,14,27,7.80
2010,11,18,14,28,7.60
2010,11,18,14,29,7.50
2010,11,18,14,30,7.40
2010,11,18,14,31,7.30
2010,11,18,14,32,7.30
2010,11,18,14,33,7.20
2010,11,18,14,34,7.20
2010,11,18,14,35,7.20
2010,11,18,14,36,7.10
2010,11,18,14,37,7.10
2010,11,18,14,38,7.10
2010,11,18,14,39,7.00
2010,11,18,14,40,7.00
2010,11,18,14,41,7.00
2010,11,18,14,42,7.00
2010,11,18,14,43,7.00
2010,11,18,14,44,7.00
2010,11,18,14,45,7.00
2010,11,18,14,46,7.00
2010,11,18,14,47,7.00
2010,11,18,14,48,7.00
2010,11,18,14,49,7.00
2010,11,18,14,50,6.90
2010,11,18,14,51,6.90
2010,11,18,14,52,6.90
2010,11,18,14,53,6.80
2010,11,18,14,54,6.80
2010,11,18,14,55,6.80
2010,11,18,14,56,6.80
2010,11,18,14,57,6.90
2010,11,18,14,58,6.90
2010,11,18,14,59,6.90
2010,11,18,15,00,7.00
2010,11,18,15,01,7.00
2010,11,18,15,02,6.90
2010,11,18,15,03,6.90
2010,11,18,15,04,6.90
2010,11,18,15,05,6.90
2010,11,18,15,06,6.90
2010,11,18,15,07,6.90
2010,11,18,15,08,6.90
2010,11,18,15,09,6.90
2010,11,18,15,10,7.00
2010,11,18,15,11,7.00
2010,11,18,15,12,7.00
2010,11,18,15,13,7.00
2010,11,18,15,14,7.10
2010,11,18,15,15,7.10
2010,11,18,15,16,7.10
2010,11,18,15,17,7.10
2010,11,18,15,18,7.10
2010,11,18,15,19,7.10
2010,11,18,15,20,7.10
2010,11,18,15,21,7.10
2010,11,18,15,22,7.20
2010,11,18,15,23,7.10
2010,11,18,15,24,7.10
2010,11,18,15,25,7.10
2010,11,18,15,26,7.00
2010,11,18,15,27,7.00
2010,11,18,15,28,7.00
2010,11,18,15,29,7.00
2010,11,18,15,30,7.00
2010,11,18,15,31,6.90
2010,11,18,15,32,6.90
2010,11,18,15,33,6.90
2010,11,18,15,34,6.80
2010,11,18,15,35,6.80
2010,11,18,15,36,6.80
2010,11,18,15,37,6.80
2010,11,18,15,38,6.70
2010,11,18,15,39,6.70
2010,11,18,15,40,6.70
2010,11,18,15,41,6.60
2010,11,18,15,42,6.60
2010,11,18,15,43,6.60
2010,11,18,15,44,6.60
2010,11,18,15,45,6.60
2010,11,18,15,46,6.60
2010,11,18,15,47,6.60
2010,11,18,15,48,6.60
2010,11,18,15,49,6.60
2010,11,18,15,50,6.60
2010,11,18,15,51,6.60
2010,11,18,15,52,6.60
2010,11,18,15,53,6.60
2010,11,18,15,54,6.60
2010,11,18,15,55,6.60
2010,11,18,15,56,6.60
2010,11,18,15,57,6.40
2010,11,18,15,58,6.40
2010,11,18,15,59,6.40
2010,11,18,16,00,6.40
2010,11,18,16,01,6.40
2010,11,18,16,02,6.40
2010,11,18,16,03,6.40
2010,11,18,16,04,6.40
2010,11,18,16,05,6.40
2010,11,18,16,06,6.40
2010,11,18,16,07,6.40
2010,11,18,16,08,6.40
2010,11,18,16,09,6.40
2010,11,18,16,10,6.30
2010,11,18,16,11,6.30
2010,11,18,16,12,6.30
2010,11,18,16,13,6.30
2010,11,18,16,14,6.30
2010,11,18,16,15,6.30
2010,11,18,16,16,6.30
2010,11,18,16,17,6.30
2010,11,18,16,18,6.30
2010,11,18,16,19,6.30
2010,11,18,16,20,6.30
2010,11,18,16,21,6.20
2010,11,18,16,22,6.20
2010,11,18,16,23,6.20
2010,11,18,16,24,6.20
2010,11,18,16,25,6.20
2010,11,18,16,26,6.20
2010,11,18,16,27,6.20
2010,11,18,16,28,6.20
2010,11,18,16,29,6.20
2010,11,18,16,30,6.20
2010,11,18,16,31,6.20
2010,11,18,16,32,6.20
2010,11,18,16,33,6.20
2010,11,18,16,34,6.20
2010,11,18,16,35,6.10
2010,11,18,16,36,6.10
2010,11,18,16,37,6.10
2010,11,18,16,38,6.10
2010,11,18,16,39,6.00
2010,11,18,16,40,6.00
2010,11,18,16,41,6.00
2010,11,18,16,42,6.00
2010,11,18,16,43,6.00
2010,11,18,16,44,6.00
2010,11,18,16,45,5.90
2010,11,18,16,46,5.90
2010,11,18,16,47,5.90
2010,11,18,16,48,5.90
2010,11,18,16,49,5.90
2010,11,18,16,50,5.90
2010,11,18,16,51,5.90
2010,11,18,16,52,5.90
2010,11,18,16,53,5.80
2010,11,18,16,54,5.80
2010,11,18,16,55,5.80
2010,11,18,16,56,5.80
2010,11,18,16,57,5.80
2010,11,18,16,58,5.70
2010,11,18,16,59,5.70
2010,11,18,17,00,5.70
2010,11,18,17,01,5.70
2010,11,18,17,02,5.70
2010,11,18,17,03,5.70
2010,11,18,17,04,5.70
2010,11,18,17,05,5.70
2010,11,18,17,06,5.70
2010,11,18,17,07,5.70
2010,11,18,17,08,5.70
2010,11,18,17,09,5.70
2010,11,18,17,10,5.70
2010,11,18,17,11,5.70
2010,11,18,17,12,5.70
2010,11,18,17,13,5.70
2010,11,18,17,14,5.70
2010,11,18,17,15,5.70
2010,11,18,17,16,5.60
2010,11,18,17,17,5.70
2010,11,18,17,18,5.70
2010,11,18,17,19,5.70
2010,11,18,17,20,5.70
2010,11,18,17,21,5.70
2010,11,18,17,22,5.70
2010,11,18,17,23,5.70
2010,11,18,17,24,5.70
2010,11,18,17,25,5.70
2010,11,18,17,26,5.70
2010,11,18,17,27,5.70
2010,11,18,17,28,5.70
2010,11,18,17,29,5.70
2010,11,18,17,30,5.60
2010,11,18,17,31,5.60
2010,11,18,17,32,5.60
2010,11,18,17,33,5.60
2010,11,18,17,34,5.50
2010,11,18,17,35,5.50
2010,11,18,17,36,5.50
2010,11,18,17,37,5.40
2010,11,18,17,38,5.40
2010,11,18,17,39,5.40
2010,11,18,17,40,5.40
2010,11,18,17,41,5.30
2010,11,18,17,42,5.30
2010,11,18,17,43,5.30
2010,11,18,17,44,5.30
2010,11,18,17,45,5.30
2010,11,18,17,46,5.30
2010,11,18,17,47,5.30
2010,11,18,17,48,5.30
2010,11,18,17,49,5.30
2010,11,18,17,50,5.30
2010,11,18,17,51,5.30
2010,11,18,17,52,5.30
2010,11,18,17,53,5.30
2010,11,18,17,54,5.30
2010,11,18,17,55,5.20
2010,11,18,17,56,5.20
2010,11,18,17,57,5.20
2010,11,18,17,58,5.20
2010,11,18,17,59,5.20
2010,11,18,18,00,5.20
2010,11,18,18,01,5.20
2010,11,18,18,02,5.20
2010,11,18,18,03,5.20
2010,11,18,18,04,5.20
2010,11,18,18,05,5.30
2010,11,18,18,06,5.30